Satellite: UNAMSAT
Catalog number: 24305
Epoch time:      103044.53425984
Element set:     662 
Inclination:       82.9330 deg
RA of node:       266.5081 deg
Eccentricity:    0.0028787
Arg of perigee:   215.8521 deg
Mean anomaly:     144.0702 deg
Mean motion:   13.73451134 rev/day
Decay rate:    2.0499E-006 rev/day^2
Epoch rev:           32279
Checksum:              299

Satellite: INMARSAT 3-F2
Catalog number: 24307
Epoch time:      103042.96706598
Element set:     81 
Inclination:        0.0691 deg
RA of node:        21.1733 deg
Eccentricity:    0.0004468
Arg of perigee:   324.8001 deg
Mean anomaly:     128.2072 deg
Mean motion:    1.00270971 rev/day
Decay rate:   -1.1500E-006 rev/day^2
Epoch rev:            2355
Checksum:              250

Satellite: HOT BIRD 2
Catalog number: 24665
Epoch time:      103044.99704955
Element set:     341 
Inclination:        0.0357 deg
RA of node:       283.6079 deg
Eccentricity:    0.0008078
Arg of perigee:    40.2136 deg
Mean anomaly:     191.6915 deg
Mean motion:    1.00273856 rev/day
Decay rate:    9.1999E-007 rev/day^2
Epoch rev:            2321
Checksum:              412

Satellite: INMARSAT 3-F3
Catalog number: 24674
Epoch time:      103043.38875354
Element set:     987 
Inclination:        0.0961 deg
RA of node:       300.8574 deg
Eccentricity:    0.0003965
Arg of perigee:     7.9603 deg
Mean anomaly:     151.2199 deg
Mean motion:    1.00269987 rev/day
Decay rate:    4.7999E-007 rev/day^2
Epoch rev:            2252
Checksum:              333

Satellite: GOES 10
Catalog number: 24786
Epoch time:      103044.37317537
Element set:     543 
Inclination:        0.1352 deg
RA of node:       105.6450 deg
Eccentricity:    0.0002031
Arg of perigee:   249.9516 deg
Mean anomaly:     147.0590 deg
Mean motion:    1.00257624 rev/day
Decay rate:    9.4000E-007 rev/day^2
Epoch rev:            2128
Checksum:              256

Satellite: INMARSAT 3-F4
Catalog number: 24819
Epoch time:      103045.01887189
Element set:     880 
Inclination:        0.0647 deg
RA of node:       292.8259 deg
Eccentricity:    0.0004061
Arg of perigee:    46.1554 deg
Mean anomaly:     117.4509 deg
Mean motion:    1.00270977 rev/day
Decay rate:   -2.8100E-006 rev/day^2
Epoch rev:            2096
Checksum:              297

Satellite: FENGYUN 2A
Catalog number: 24834
Epoch time:      103045.77456852
Element set:     959 
Inclination:        2.5614 deg
RA of node:        88.4803 deg
Eccentricity:    0.0001477
Arg of perigee:   214.3694 deg
Mean anomaly:     205.8893 deg
Mean motion:    1.00283537 rev/day
Decay rate:   -1.9100E-006 rev/day^2
Epoch rev:            2080
Checksum:              300

Satellite: HOT BIRD 3
Catalog number: 24931
Epoch time:      103044.99704955
Element set:     423 
Inclination:        0.0635 deg
RA of node:       283.0100 deg
Eccentricity:    0.0010429
Arg of perigee:    51.6023 deg
Mean anomaly:     180.8732 deg
Mean motion:    1.00272870 rev/day
Decay rate:    9.0999E-007 rev/day^2
Epoch rev:            2003
Checksum:              263

Satellite: METEOSAT 7
Catalog number: 24932
Epoch time:      103045.73427358
Element set:     248 
Inclination:        0.2020 deg
RA of node:        60.5862 deg
Eccentricity:    0.0001357
Arg of perigee:   250.6553 deg
Mean anomaly:      97.8282 deg
Mean motion:    1.00278852 rev/day
Decay rate:    2.9999E-008 rev/day^2
Epoch rev:            1998
Checksum:              316

Satellite: ASTRA 1G
Catalog number: 25071
Epoch time:      103042.06871484
Element set:     391 
Inclination:        0.0217 deg
RA of node:       242.6326 deg
Eccentricity:    0.0075903
Arg of perigee:   319.6138 deg
Mean anomaly:     343.2677 deg
Mean motion:    1.00272369 rev/day
Decay rate:    9.9999E-009 rev/day^2
Epoch rev:            1906
Checksum:              404

Satellite: INMARSAT 3-F5
Catalog number: 25153
Epoch time:      103042.93125001
Element set:     842 
Inclination:        0.4667 deg
RA of node:       353.4307 deg
Eccentricity:    0.0002918
Arg of perigee:   342.1551 deg
Mean anomaly:     166.1795 deg
Mean motion:    1.00269609 rev/day
Decay rate:    1.5099E-006 rev/day^2
Epoch rev:            1843
Checksum:              281

Satellite: HOT BIRD 4
Catalog number: 25237
Epoch time:      103044.99704955
Element set:     326 
Inclination:        0.0271 deg
RA of node:       352.7901 deg
Eccentricity:    0.0007523
Arg of perigee:   278.3132 deg
Mean anomaly:     244.4850 deg
Mean motion:    1.00273304 rev/day
Decay rate:    9.1999E-007 rev/day^2
Epoch rev:            1849
Checksum:              402

Satellite: NOAA 15
Catalog number: 25338
Epoch time:      103045.87487512
Element set:     5 
Inclination:       98.5501 deg
RA of node:        68.1253 deg
Eccentricity:    0.0010351
Arg of perigee:   333.0931 deg
Mean anomaly:      26.9710 deg
Mean motion:   14.24243233 rev/day
Decay rate:    2.4099E-006 rev/day^2
Epoch rev:           24727
Checksum:              284

Satellite: RESURS O1-N4
Catalog number: 25394
Epoch time:      103045.91157658
Element set:     448 
Inclination:       98.6314 deg
RA of node:       123.9078 deg
Eccentricity:    0.0002321
Arg of perigee:   109.5360 deg
Mean anomaly:     250.6067 deg
Mean motion:   14.23876589 rev/day
Decay rate:    1.5199E-006 rev/day^2
Epoch rev:           23901
Checksum:              326

Satellite: TMSAT
Catalog number: 25396
Epoch time:      103043.91273721
Element set:     825 
Inclination:       98.6281 deg
RA of node:       121.1306 deg
Eccentricity:    0.0003622
Arg of perigee:   139.2789 deg
Mean anomaly:     220.8667 deg
Mean motion:   14.23508990 rev/day
Decay rate:   -4.3000E-007 rev/day^2
Epoch rev:           23872
Checksum:              407

Satellite: TECHSAT 1B
Catalog number: 25397
Epoch time:      103043.93235492
Element set:     133 
Inclination:       98.6224 deg
RA of node:       120.0366 deg
Eccentricity:    0.0001678
Arg of perigee:   133.8159 deg
Mean anomaly:     226.3156 deg
Mean motion:   14.22958555 rev/day
Decay rate:    8.3999E-007 rev/day^2
Epoch rev:           23869
Checksum:              335

Satellite: ASTRA 2A
Catalog number: 25462
Epoch time:      103041.00000000
Element set:     531 
Inclination:        0.0385 deg
RA of node:       308.7109 deg
Eccentricity:    0.0004824
Arg of perigee:   280.8620 deg
Mean anomaly:     298.3055 deg
Mean motion:    1.00272094 rev/day
Decay rate:    1.5900E-006 rev/day^2
Epoch rev:            1635
Checksum:              228

Satellite: EUTELSAT W2
Catalog number: 25491
Epoch time:      103044.86217065
Element set:     578 
Inclination:        0.0103 deg
RA of node:       111.2185 deg
Eccentricity:    0.0003737
Arg of perigee:   188.6792 deg
Mean anomaly:     169.9444 deg
Mean motion:    1.00270269 rev/day
Decay rate:    1.0899E-006 rev/day^2
Epoch rev:            1600
Checksum:              286

Satellite: HOT BIRD 5
Catalog number: 25495
Epoch time:      103042.93716436
Element set:     500 
Inclination:        0.0310 deg
RA of node:       255.9940 deg
Eccentricity:    0.0003377
Arg of perigee:    65.4663 deg
Mean anomaly:     190.5501 deg
Mean motion:    1.00272693 rev/day
Decay rate:    1.6499E-006 rev/day^2
Epoch rev:            1595
Checksum:              286

Satellite: SEDSAT 1
Catalog number: 25509
Epoch time:      103045.66451105
Element set:     779 
Inclination:       31.4290 deg
RA of node:       175.2243 deg
Eccentricity:    0.0358399
Arg of perigee:   268.7552 deg
Mean anomaly:      87.2014 deg
Mean motion:   14.27430090 rev/day
Decay rate:    1.1969E-005 rev/day^2
Epoch rev:           22475
Checksum:              310

Satellite: PAN SAT
Catalog number: 25520
Epoch time:      103043.82387660
Element set:     640 
Inclination:       28.4592 deg
RA of node:       262.1240 deg
Eccentricity:    0.0005695
Arg of perigee:   284.6721 deg
Mean anomaly:      75.3214 deg
Mean motion:   15.13855201 rev/day
Decay rate:    3.2849E-005 rev/day^2
Epoch rev:           23671
Checksum:              288

Satellite: ISS (ZARYA)
Catalog number: 25544
Epoch time:      103046.19444444
Element set:     691 
Inclination:       51.6345 deg
RA of node:       272.9263 deg
Eccentricity:    0.0012301
Arg of perigee:   203.5259 deg
Mean anomaly:     291.3274 deg
Mean motion:   15.58359528 rev/day
Decay rate:    2.2585E-004 rev/day^2
Epoch rev:           24197
Checksum:              307

Satellite: ORSTED
Catalog number: 25635
Epoch time:      103045.09601001
Element set:     831 
Inclination:       96.4501 deg
RA of node:        32.3989 deg
Eccentricity:    0.0145567
Arg of perigee:   343.9472 deg
Mean anomaly:      15.7136 deg
Mean motion:   14.44833732 rev/day
Decay rate:    1.3820E-005 rev/day^2
Epoch rev:           20929
Checksum:              291

Satellite: SUNSAT
Catalog number: 25636
Epoch time:      103043.96172172
Element set:     721 
Inclination:       96.4523 deg
RA of node:        30.2042 deg
Eccentricity:    0.0149517
Arg of perigee:   353.8708 deg
Mean anomaly:       6.0662 deg
Mean motion:   14.42948994 rev/day
Decay rate:    6.6600E-006 rev/day^2
Epoch rev:           20900
Checksum:              294

Satellite: UOSAT 12
Catalog number: 25693
Epoch time:      103046.16331809
Element set:     704 
Inclination:       64.5607 deg
RA of node:        21.2086 deg
Eccentricity:    0.0019866
Arg of perigee:   315.6007 deg
Mean anomaly:      44.3499 deg
Mean motion:   14.76387251 rev/day
Decay rate:    8.7899E-006 rev/day^2
Epoch rev:           20575
Checksum:              333

